Location: Caltech
(34.1382°N, 118.1253°W)
Time: 13:17:10
(UTC-07:00)

Cosmos 1125 Rocket - Visible Passes

Search period start: 03 July 2015 00:00
Search period end: 13 July 2015 00:00
Orbit: 757 x 782 km, 74.0° (Epoch: 03 July)

Date Brightness Start Highest point End Pass type
(mag) Time Alt. Az. Time Alt. Az. Time Alt. Az.
03 Jul 6.4 04:47:23 10° NNE 04:51:17 21° ENE 04:55:18 10° ESE visible
04 Jul 6.8 04:12:20 10° NE 04:14:17 12° ENE 04:16:33 10° E visible
05 Jul 4.1 05:15:14 10° N 05:20:29 65° ENE 05:25:42 10° SSE visible
06 Jul 5.2 04:38:57 10° N 04:43:48 36° ENE 04:48:38 10° SE visible
07 Jul 6.1 04:03:02 10° NNE 04:06:57 21° ENE 04:10:59 10° ESE visible
08 Jul 6.6 03:27:58 10° NE 03:29:57 12° ENE 03:32:15 10° E visible
08 Jul 3.5 05:07:29 10° NNW 05:12:44 71° WSW 05:17:56 10° S visible
09 Jul 4.0 04:30:55 10° N 04:36:10 65° ENE 04:41:21 10° SSE visible
10 Jul 5.0 03:54:37 10° N 03:59:27 36° ENE 04:04:17 10° SE visible
11 Jul 5.9 03:18:41 10° NNE 03:22:37 21° ENE 03:26:39 10° ESE visible
11 Jul 4.0 05:00:01 10° NW 05:04:53 38° WSW 05:09:40 10° SSW visible
12 Jul 6.4 02:43:36 10° NE 02:45:37 12° ENE 02:47:57 10° E visible
12 Jul 3.4 04:23:08 10° NNW 04:28:23 70° WSW 04:33:34 10° S visible
